Current Version              Previous Version:    01  02  03  04  05  06  07  08  09  10  11  12  13  14  15  16  17  18  19  20  21  22  23  24  25  26  27  28  29  30  
   31  32  33  34  35  36  37  38  39  40  41  42  43  44  45  46  47  48  49  50  51  52  53  54  55  56  57  58  59  60  

[Printable]
117
ASUS44 KEWX 290010
RWRTX
SOUTH TEXAS REGIONAL WEATHER ROUNDUP
NATIONAL WEATHER SERVICE AUSTIN/SAN ANTONIO TX
700 PM CDT MON JUL 28 2014

NOTE: "FAIR" INDICATED FEW OR NO CLOUDS BELOW 12,000 FEET WITH NO
SIGNIFICANT WEATHER AND/OR OBSTRUCTIONS TO VISIBILITY.

* - THESE STATIONS ARE NOT NWS OR FAA STATIONS...AND ARE NOT SUBJECT
    TO NWS AND FAA QUALITY CONTROL.

TXZ171-172-183>190-290100-
TEXAS HILL COUNTRY AND EDWARDS PLATEAU

CITY           SKY/WX    TMP DP  RH WIND       PRES   REMARKS
JUNCTION       MOSUNNY   97  56  25 SE12      30.05F HX  95
6HR MIN TEMP:  92; 6HR MAX TEMP:  99;

*LLANO         MOSUNNY   99  59  26 SE10      30.06F HX  98
BURNET         MOSUNNY   96  60  30 E9        30.08S HX  96
6HR MIN TEMP:  92; 6HR MAX TEMP:  98;

*HORSESHOE BAY MOSUNNY   97  55  24 E3        30.04S HX  95
6HR MIN TEMP:  92; 6HR MAX TEMP: 100;

*KERRVILLE     SUNNY     94  61  32 S9        30.07S HX  94
6HR MIN TEMP:  87; 6HR MAX TEMP:  97;

*FREDERICKSBRG MOSUNNY   95  56  26 SE7       30.07F HX  93
6HR MIN TEMP:  89; 6HR MAX TEMP:  97;

*ROCKSPRINGS   SUNNY     93  55  27 SE7       30.11F HX  91
*BOERNE STAGE  SUNNY     91  57  31 SE5       30.07F HX  90
*CASTROVILLE   SUNNY     97  58  27 E7        30.03S HX  96
HONDO          SUNNY     96  61  31 E6        30.03F HX  96
6HR MIN TEMP:  86; 6HR MAX TEMP:  97;

*UVALDE        SUNNY     96  63  32 E9        30.02F HX  97
6HR MIN TEMP:  88; 6HR MAX TEMP:  98;

DEL RIO        SUNNY     98  62  30 E10       29.98F HX  99
6HR MIN TEMP:  88; 6HR MAX TEMP: 100;

LAUGHLIN AFB   SUNNY     97  64  33 SE13      29.99F HX  99
6HR MIN TEMP:  87; 6HR MAX TEMP:  98;

CARRIZO SPRGS  SUNNY     99  64  32 NE8       29.96F HX 101
$$

TXZ173-191>194-202-209-217>225-228-290100-
CENTRAL AND SOUTH CENTRAL TEXAS

CITY           SKY/WX    TMP DP  RH WIND       PRES   REMARKS
GEORGETOWN     SUNNY     97  64  34 SE3       30.01F HX  99
AUSTIN/BERGSTM MOSUNNY   97  65  34 NE7       30.01F HX  99
6HR MIN TEMP:  91; 6HR MAX TEMP: 100;

AUSTIN/MABRY   SUNNY     97  65  34 VRB3      30.02F HX  99
6HR MIN TEMP:  92; 6HR MAX TEMP:  99;

*AUSTIN/EXEC   SUNNY     95  64  36 CALM      30.03S HX  97
*LAGO VISTA    SUNNY     95  57  27 E7        30.06F HX  94
6HR MIN TEMP:  92; 6HR MAX TEMP:  99;

SAN MARCOS     MOSUNNY   97  61  30 E8        30.02F HX  97
6HR MIN TEMP:  93; 6HR MAX TEMP:  99;

NEW BRAUNFELS  SUNNY     97  61  30 SE8       30.01F HX  97
6HR MIN TEMP:  91; 6HR MAX TEMP:  99;

RANDOLPH AFB   PTSUNNY   97  63  31 SE9       30.02F HX  98
6HR MIN TEMP:  91; 6HR MAX TEMP:  98;

PT SAN ANTONIO SUNNY     96  63  33 S6        30.01F HX  97
SAN ANTONIO    MOSUNNY   96  64  34 SE6       30.03F HX  98
6HR MIN TEMP:  89; 6HR MAX TEMP:  97;

STINSON FIELD  SUNNY     97  64  33 SE3       29.99F HX  99
6HR MIN TEMP:  90; 6HR MAX TEMP:  99;

*PLEASANTON    SUNNY     99  60  27 E6        29.99S HX  99
*LA GRANGE     SUNNY     99  65  32 CALM      29.99S HX 101
6HR MIN TEMP:  93; 6HR MAX TEMP: 100;

*GIDDINGS      SUNNY     95  63  34 CALM      30.06S HX  96
6HR MIN TEMP:  91; 6HR MAX TEMP:  97;

*GONZALES      SUNNY     99  65  32 S7        29.99S HX 102
6HR MIN TEMP:  94; 6HR MAX TEMP: 101;

$$

TXZ163>164-176>182-195>201-210>213-226-227-235-290100-
SOUTHEAST TEXAS

CITY           SKY/WX    TMP DP  RH WIND       PRES   REMARKS
COLLEGE STN    SUNNY     96  64  34 CALM      30.03R HX  98
6HR MIN TEMP:  89; 6HR MAX TEMP:  97;

*BRYAN         SUNNY    N/A N/A N/A CALM      30.03S
*CALDWELL      SUNNY     95  59  30 CALM      30.05S HX  94
*CROCKETT      SUNNY     84  73  70 NE14      30.10R HX  91
*BRENHAM       SUNNY     94  68  41 SE6       30.03R HX  99
6HR MIN TEMP:  91; 6HR MAX TEMP:  97;

HUNTSVILLE     MOSUNNY   92  71  50 CALM      30.04S HX  98
6HR MIN TEMP:  90; 6HR MAX TEMP:  95;

CONROE         SUNNY     95  70  44 CALM      30.03S HX 101
6HR MIN TEMP:  90; 6HR MAX TEMP:  96;

HOUSTON BUSH   MOSUNNY   97  63  32 NW6       30.00F HX  98
6HR MIN TEMP:  92; 6HR MAX TEMP:  99;

HOUSTON HOBBY  PTSUNNY   94  71  47 S8        30.00S HX 101
6HR MIN TEMP:  91; 6HR MAX TEMP:  97;

*HOUSTON SW AP SUNNY     90  74  59 S6        30.02R HX  98
6HR MIN TEMP:  90; 6HR MAX TEMP:  98;

PEARLAND       SUNNY     91  74  57 S9        30.02F HX 100
6HR MIN TEMP:  91; 6HR MAX TEMP:  97;

HOUSTON HOOKS  SUNNY     93  70  46 W3        30.01F HX  99
6HR MIN TEMP:  90; 6HR MAX TEMP:  96;

ELLINGTON FLD  PTSUNNY   93  79  62 S8        30.02S HX 110
SUGAR LAND     SUNNY     95  71  45 CALM      30.00F HX 102
6HR MIN TEMP:  91; 6HR MAX TEMP:  98;

*HOUSTON EXEC  SUNNY     93  72  49 CALM      30.02S HX 100
*CLEVELAND MUN SUNNY     93  76  57 CALM      30.02S HX 105
6HR MIN TEMP:  91; 6HR MAX TEMP:  96;

*WHARTON       SUNNY     89  71  56 S7        30.01F HX  94
6HR MIN TEMP:  86; 6HR MAX TEMP:  99;

$$

TXZ214>216-236>238-290100-
THE UPPER TEXAS COAST

CITY           SKY/WX    TMP DP  RH WIND       PRES   REMARKS
*ORANGE        SUNNY     91  73  55 NW3       30.02R HX  99
6HR MIN TEMP:  90; 6HR MAX TEMP:  93;

PORT ARTHUR    SUNNY     92  73  53 W5        30.00R HX 100
6HR MIN TEMP:  91; 6HR MAX TEMP:  95;

GALVESTON      MOSUNNY   87  76  69 S15       30.02F HX  97
6HR MIN TEMP:  87; 6HR MAX TEMP:  92;

ANGLETON       SUNNY     88  74  63 S13       30.01F HX  96
6HR MIN TEMP:  83; 6HR MAX TEMP:  94; 6HR PCP: TRACE;

*BAY CITY      SUNNY     89  74  60 S9        30.02F HX  97
PALACIOS       SUNNY     88  76  67 S14       30.02S HX  99
6HR MIN TEMP:  88; 6HR MAX TEMP:  92;

$$

TXZ229>234-239>247-290100-
TEXAS COASTAL BEND AND RIO GRANDE PLAINS

CITY           SKY/WX    TMP DP  RH WIND       PRES   REMARKS
VICTORIA       SUNNY     94  70  45 S14       30.01S HX 100
6HR MIN TEMP:  94; 6HR MAX TEMP: 101;

*BEEVILLE      SUNNY     93  69  44 SE15G24   30.01R HX  98
6HR MIN TEMP:  93; 6HR MAX TEMP: 101;

ROCKPORT       SUNNY     87  77  72 SE16      30.02F HX  99
6HR MIN TEMP:  87; 6HR MAX TEMP:  92;

*PORT ARANSAS  SUNNY     85  78  80 S7        30.03S HX  95
6HR MIN TEMP:  84; 6HR MAX TEMP:  89;

*PORT LAVACA   SUNNY     90  73  58 S14       30.01F HX  97
6HR MIN TEMP:  90; 6HR MAX TEMP:  95;

*INGLESIDE     SUNNY     89  74  62 SE16      30.02S HX  98
CORPUS CHRISTI MOSUNNY   90  71  53 SE18      30.02S HX  96
6HR MIN TEMP:  90; 6HR MAX TEMP:  97;

CORPUS NAS     PTSUNNY   87  76  69 SE15      30.02F HX  97
6HR MIN TEMP:  87; 6HR MAX TEMP:  93;

*ROBSTOWN      NOT AVBL
ALICE          SUNNY     92  68  45 SE20      30.00R HX  96
6HR MIN TEMP:  92; 6HR MAX TEMP: 102;

KINGSVILLE NAS MOSUNNY   91  70  49 SE18G25   30.01S HX  96
6HR MIN TEMP:  91; 6HR MAX TEMP: 100;

COTULLA        SUNNY    100  59  25 SE6       29.96F HX 100
6HR MIN TEMP:  92; 6HR MAX TEMP: 102;

*FAITH RANCH   SUNNY    100  59  25 E9        29.98F HX 100
LAREDO         SUNNY    103  61  25 SE9       29.97F HX 104
6HR MIN TEMP:  98; 6HR MAX TEMP: 105;

$$

TXZ248>255-290100-
DEEP SOUTH TEXAS

CITY           SKY/WX    TMP DP  RH WIND       PRES   REMARKS
BROWNSVILLE    MOSUNNY   88  73  61 SE18      30.02S HX  95
6HR MIN TEMP:  88; 6HR MAX TEMP:  96;

PORT ISABEL    SUNNY     89  73  59 SE20      30.02S HX  97
6HR MIN TEMP:  89; 6HR MAX TEMP:  95;

*SOUTH PADRE   SUNNY     86  77  74 SE10      30.03S HX  97
HARLINGEN      MOSUNNY   91  72  53 SE15      30.00R HX  98
6HR MIN TEMP:  90; 6HR MAX TEMP: 101;

*HEBBRONVILLE  PTSUNNY   98  65  32 E20G25    29.99R HX 101
MCALLEN        SUNNY     95  68  41 SE18G24   29.99S HX  99
6HR MIN TEMP:  95; 6HR MAX TEMP: 102;

*WESLACO       SUNNY     93  68  44 SE14G21   29.99R HX  97